Year,Month,Day,Hour,Minute,Value (Times are PST for temperature in C)
2015,07,20,00,00,23.40
2015,07,20,00,01,23.40
2015,07,20,00,02,23.40
2015,07,20,00,03,23.40
2015,07,20,00,04,23.40
2015,07,20,00,05,23.50
2015,07,20,00,06,23.50
2015,07,20,00,07,23.50
2015,07,20,00,08,23.40
2015,07,20,00,09,23.40
2015,07,20,00,10,23.40
2015,07,20,00,11,23.40
2015,07,20,00,12,23.40
2015,07,20,00,13,23.40
2015,07,20,00,14,23.30
2015,07,20,00,15,23.30
2015,07,20,00,16,23.30
2015,07,20,00,17,23.30
2015,07,20,00,18,23.30
2015,07,20,00,19,23.20
2015,07,20,00,20,23.20
2015,07,20,00,21,23.20
2015,07,20,00,22,23.20
2015,07,20,00,23,23.20
2015,07,20,00,24,23.20
2015,07,20,00,25,23.10
2015,07,20,00,26,23.10
2015,07,20,00,27,23.10
2015,07,20,00,28,23.10
2015,07,20,00,29,23.10
2015,07,20,00,30,23.10
2015,07,20,00,31,23.10
2015,07,20,00,32,23.00
2015,07,20,00,33,23.00
2015,07,20,00,34,22.90
2015,07,20,00,35,22.90
2015,07,20,00,36,22.90
2015,07,20,00,37,22.90
2015,07,20,00,38,22.80
2015,07,20,00,39,22.80
2015,07,20,00,40,22.80
2015,07,20,00,41,22.80
2015,07,20,00,42,22.80
2015,07,20,00,43,22.80
2015,07,20,00,44,22.70
2015,07,20,00,45,22.70
2015,07,20,00,46,22.70
2015,07,20,00,47,22.60
2015,07,20,00,48,22.60
2015,07,20,00,49,22.60
2015,07,20,00,50,22.60
2015,07,20,00,51,22.60
2015,07,20,00,52,22.60
2015,07,20,00,53,22.60
2015,07,20,00,54,22.60
2015,07,20,00,55,22.50
2015,07,20,00,56,22.50
2015,07,20,00,57,22.40
2015,07,20,00,58,22.40
2015,07,20,00,59,22.30
2015,07,20,01,00,22.30
2015,07,20,01,01,22.30
2015,07,20,01,02,22.20
2015,07,20,01,03,22.20
2015,07,20,01,04,22.20
2015,07,20,01,05,22.30
2015,07,20,01,06,22.30
2015,07,20,01,07,22.30
2015,07,20,01,08,22.20
2015,07,20,01,09,22.20
2015,07,20,01,10,22.20
2015,07,20,01,11,22.20
2015,07,20,01,12,22.20
2015,07,20,01,13,22.20
2015,07,20,01,14,22.20
2015,07,20,01,15,22.20
2015,07,20,01,16,22.10
2015,07,20,01,17,22.10
2015,07,20,01,18,22.10
2015,07,20,01,19,22.10
2015,07,20,01,20,22.10
2015,07,20,01,21,22.20
2015,07,20,01,22,22.20
2015,07,20,01,23,22.20
2015,07,20,01,24,22.10
2015,07,20,01,25,22.10
2015,07,20,01,26,22.10
2015,07,20,01,27,22.10
2015,07,20,01,28,22.10
2015,07,20,01,29,22.10
2015,07,20,01,30,22.10
2015,07,20,01,31,22.10
2015,07,20,01,32,22.00
2015,07,20,01,33,22.00
2015,07,20,01,34,22.00
2015,07,20,01,35,21.90
2015,07,20,01,36,21.90
2015,07,20,01,37,21.90
2015,07,20,01,38,21.80
2015,07,20,01,39,21.80
2015,07,20,01,40,21.80
2015,07,20,01,41,21.70
2015,07,20,01,42,21.70
2015,07,20,01,43,21.60
2015,07,20,01,44,21.60
2015,07,20,01,45,21.60
2015,07,20,01,46,21.60
2015,07,20,01,47,21.60
2015,07,20,01,48,21.60
2015,07,20,01,49,21.50
2015,07,20,01,50,21.50
2015,07,20,01,51,21.40
2015,07,20,01,52,21.40
2015,07,20,01,53,21.30
2015,07,20,01,54,21.30
2015,07,20,01,55,21.30
2015,07,20,01,56,21.20
2015,07,20,01,57,21.20
2015,07,20,01,58,21.20
2015,07,20,01,59,21.10
2015,07,20,02,00,21.10
2015,07,20,02,01,21.00
2015,07,20,02,02,20.90
2015,07,20,02,03,20.90
2015,07,20,02,04,20.80
2015,07,20,02,05,20.80
2015,07,20,02,06,20.70
2015,07,20,02,07,20.70
2015,07,20,02,08,20.70
2015,07,20,02,09,20.60
2015,07,20,02,10,20.60
2015,07,20,02,11,20.60
2015,07,20,02,12,20.60
2015,07,20,02,13,20.50
2015,07,20,02,14,20.50
2015,07,20,02,15,20.50
2015,07,20,02,16,20.40
2015,07,20,02,17,20.40
2015,07,20,02,18,20.40
2015,07,20,02,19,20.40
2015,07,20,02,20,20.40
2015,07,20,02,21,20.40
2015,07,20,02,22,20.40
2015,07,20,02,23,20.30
2015,07,20,02,24,20.30
2015,07,20,02,25,20.30
2015,07,20,02,26,20.30
2015,07,20,02,27,20.30
2015,07,20,02,28,20.20
2015,07,20,02,29,20.20
2015,07,20,02,30,20.10
2015,07,20,02,31,20.10
2015,07,20,02,32,20.10
2015,07,20,02,33,20.00
2015,07,20,02,34,19.90
2015,07,20,02,35,19.80
2015,07,20,02,36,19.70
2015,07,20,02,37,19.70
2015,07,20,02,38,19.60
2015,07,20,02,39,19.50
2015,07,20,02,40,19.40
2015,07,20,02,41,19.40
2015,07,20,02,42,19.30
2015,07,20,02,43,19.30
2015,07,20,02,44,19.30
2015,07,20,02,45,19.20
2015,07,20,02,46,19.20
2015,07,20,02,47,19.10
2015,07,20,02,48,19.10
2015,07,20,02,49,19.10
2015,07,20,02,50,19.00
2015,07,20,02,51,19.00
2015,07,20,02,52,18.90
2015,07,20,02,53,18.90
2015,07,20,02,54,18.90
2015,07,20,02,55,18.80
2015,07,20,02,56,18.80
2015,07,20,02,57,18.70
2015,07,20,02,58,18.70
2015,07,20,02,59,18.70
2015,07,20,03,00,18.70
2015,07,20,03,01,18.70
2015,07,20,03,02,18.70
2015,07,20,03,03,18.70
2015,07,20,03,04,18.70
2015,07,20,03,05,18.70
2015,07,20,03,06,18.70
2015,07,20,03,07,18.70
2015,07,20,03,08,18.60
2015,07,20,03,09,18.50
2015,07,20,03,10,18.40
2015,07,20,03,11,18.40
2015,07,20,03,12,18.40
2015,07,20,03,13,18.30
2015,07,20,03,14,18.20
2015,07,20,03,15,18.10
2015,07,20,03,16,18.10
2015,07,20,03,17,18.00
2015,07,20,03,18,17.90
2015,07,20,03,19,17.80
2015,07,20,03,20,17.80
2015,07,20,03,21,17.70
2015,07,20,03,22,17.70
2015,07,20,03,23,17.70
2015,07,20,03,24,17.70
2015,07,20,03,25,17.70
2015,07,20,03,26,17.70
2015,07,20,03,27,17.60
2015,07,20,03,28,17.60
2015,07,20,03,29,17.70
2015,07,20,03,30,17.70
2015,07,20,03,31,17.70
2015,07,20,03,32,17.80
2015,07,20,03,33,17.80
2015,07,20,03,34,17.80
2015,07,20,03,35,17.80
2015,07,20,03,36,17.80
2015,07,20,03,37,17.80
2015,07,20,03,38,17.80
2015,07,20,03,39,17.80
2015,07,20,03,40,17.80
2015,07,20,03,41,17.80
2015,07,20,03,42,17.80
2015,07,20,03,43,17.80
2015,07,20,03,44,17.80
2015,07,20,03,45,17.80
2015,07,20,03,46,17.80
2015,07,20,03,47,17.80
2015,07,20,03,48,17.80
2015,07,20,03,49,17.80
2015,07,20,03,50,17.70
2015,07,20,03,51,17.70
2015,07,20,03,52,17.70
2015,07,20,03,53,17.70
2015,07,20,03,54,17.70
2015,07,20,03,55,17.60
2015,07,20,03,56,17.60
2015,07,20,03,57,17.60
2015,07,20,03,58,17.60
2015,07,20,03,59,17.60
2015,07,20,04,00,17.60
2015,07,20,04,01,17.60
2015,07,20,04,02,17.60
2015,07,20,04,03,17.50
2015,07,20,04,04,17.50
2015,07,20,04,05,17.50
2015,07,20,04,06,17.50
2015,07,20,04,07,17.50
2015,07,20,04,08,17.40
2015,07,20,04,09,17.40
2015,07,20,04,10,17.40
2015,07,20,04,11,17.40
2015,07,20,04,12,17.50
2015,07,20,04,13,17.50
2015,07,20,04,14,17.50
2015,07,20,04,15,17.50
2015,07,20,04,16,17.50
2015,07,20,04,17,17.50
2015,07,20,04,18,17.50
2015,07,20,04,19,17.50
2015,07,20,04,20,17.60
2015,07,20,04,21,17.60
2015,07,20,04,22,17.60
2015,07,20,04,23,17.60
2015,07,20,04,24,17.60
2015,07,20,04,25,17.70
2015,07,20,04,26,17.70
2015,07,20,04,27,17.70
2015,07,20,04,28,17.70
2015,07,20,04,29,17.70
2015,07,20,04,30,17.80
2015,07,20,04,31,17.80
2015,07,20,04,32,17.80
2015,07,20,04,33,17.70
2015,07,20,04,34,17.70
2015,07,20,04,35,17.70
2015,07,20,04,36,17.70
2015,07,20,04,37,17.70
2015,07,20,04,38,17.70
2015,07,20,04,39,17.70
2015,07,20,04,40,17.70
2015,07,20,04,41,17.70
2015,07,20,04,42,17.70
2015,07,20,04,43,17.60
2015,07,20,04,44,17.60
2015,07,20,04,45,17.60
2015,07,20,04,46,17.60
2015,07,20,04,47,17.60
2015,07,20,04,48,17.60
2015,07,20,04,49,17.60
2015,07,20,04,50,17.60
2015,07,20,04,51,17.60
2015,07,20,04,52,17.60
2015,07,20,04,53,17.60
2015,07,20,04,54,17.60
2015,07,20,04,55,17.60
2015,07,20,04,56,17.60
2015,07,20,04,57,17.60
2015,07,20,04,58,17.60
2015,07,20,04,59,17.60
2015,07,20,05,00,17.60
2015,07,20,05,01,17.50
2015,07,20,05,02,17.50
2015,07,20,05,03,17.50
2015,07,20,05,04,17.50
2015,07,20,05,05,17.50
2015,07,20,05,06,17.50
2015,07,20,05,07,17.50
2015,07,20,05,08,17.50
2015,07,20,05,09,17.50
2015,07,20,05,10,17.50
2015,07,20,05,11,17.50
2015,07,20,05,12,17.50
2015,07,20,05,13,17.50
2015,07,20,05,14,17.50
2015,07,20,05,15,17.40
2015,07,20,05,16,17.40
2015,07,20,05,17,17.40
2015,07,20,05,18,17.40
2015,07,20,05,19,17.30
2015,07,20,05,20,17.30
2015,07,20,05,21,17.30
2015,07,20,05,22,17.40
2015,07,20,05,23,17.40
2015,07,20,05,24,17.40
2015,07,20,05,25,17.40
2015,07,20,05,26,17.40
2015,07,20,05,27,17.40
2015,07,20,05,28,17.40
2015,07,20,05,29,17.40
2015,07,20,05,30,17.40
2015,07,20,05,31,17.40
2015,07,20,05,32,17.30
2015,07,20,05,33,17.30
2015,07,20,05,34,17.30
2015,07,20,05,35,17.40
2015,07,20,05,36,17.40
2015,07,20,05,37,17.50
2015,07,20,05,38,17.60
2015,07,20,05,39,17.60
2015,07,20,05,40,17.70
2015,07,20,05,41,17.70
2015,07,20,05,42,17.70
2015,07,20,05,43,17.80
2015,07,20,05,44,17.80
2015,07,20,05,45,17.80
2015,07,20,05,46,17.80
2015,07,20,05,47,17.80
2015,07,20,05,48,17.90
2015,07,20,05,49,17.90
2015,07,20,05,50,17.90
2015,07,20,05,51,17.90
2015,07,20,05,52,17.90
2015,07,20,05,53,18.00
2015,07,20,05,54,18.00
2015,07,20,05,55,18.10
2015,07,20,05,56,18.10
2015,07,20,05,57,18.20
2015,07,20,05,58,18.20
2015,07,20,05,59,18.20
2015,07,20,06,00,18.20
2015,07,20,06,01,18.20
2015,07,20,06,02,18.30
2015,07,20,06,03,18.30
2015,07,20,06,04,18.30
2015,07,20,06,05,18.30
2015,07,20,06,06,18.30
2015,07,20,06,07,18.30
2015,07,20,06,08,18.30
2015,07,20,06,09,18.40
2015,07,20,06,10,18.40
2015,07,20,06,11,18.30
2015,07,20,06,12,18.30
2015,07,20,06,13,18.30
2015,07,20,06,14,18.20
2015,07,20,06,15,18.20
2015,07,20,06,16,18.10
2015,07,20,06,17,18.10
2015,07,20,06,18,18.00
2015,07,20,06,19,17.90
2015,07,20,06,20,17.80
2015,07,20,06,21,17.80
2015,07,20,06,22,17.80
2015,07,20,06,23,17.70
2015,07,20,06,24,17.70
2015,07,20,06,25,17.60
2015,07,20,06,26,17.60
2015,07,20,06,27,17.60
2015,07,20,06,28,17.60
2015,07,20,06,29,17.50
2015,07,20,06,30,17.50
2015,07,20,06,31,17.50
2015,07,20,06,32,17.60
2015,07,20,06,33,17.50
2015,07,20,06,34,17.50
2015,07,20,06,35,17.50
2015,07,20,06,36,17.50
2015,07,20,06,37,17.50
2015,07,20,06,38,17.60
2015,07,20,06,39,17.60
2015,07,20,06,40,17.60
2015,07,20,06,41,17.50
2015,07,20,06,42,17.60
2015,07,20,06,43,17.60
2015,07,20,06,44,17.60
2015,07,20,06,45,17.60
2015,07,20,06,46,17.60
2015,07,20,06,47,17.60
2015,07,20,06,48,17.60
2015,07,20,06,49,17.70
2015,07,20,06,50,17.70
2015,07,20,06,51,17.60
2015,07,20,06,52,17.60
2015,07,20,06,53,17.60
2015,07,20,06,54,17.60
2015,07,20,06,55,17.60
2015,07,20,06,56,17.60
2015,07,20,06,57,17.50
2015,07,20,06,58,17.50
2015,07,20,06,59,17.40
2015,07,20,07,00,17.40
2015,07,20,07,01,17.30
2015,07,20,07,02,17.30
2015,07,20,07,03,17.30
2015,07,20,07,04,17.30
2015,07,20,07,05,17.20
2015,07,20,07,06,17.20
2015,07,20,07,07,17.20
2015,07,20,07,08,17.20
2015,07,20,07,09,17.20
2015,07,20,07,10,17.20
2015,07,20,07,11,17.20
2015,07,20,07,12,17.20
2015,07,20,07,13,17.20
2015,07,20,07,14,17.30
2015,07,20,07,15,17.30
2015,07,20,07,16,17.30
2015,07,20,07,17,17.30
2015,07,20,07,18,17.40
2015,07,20,07,19,17.40
2015,07,20,07,20,17.40
2015,07,20,07,21,17.50
2015,07,20,07,22,17.50
2015,07,20,07,23,17.60
2015,07,20,07,24,17.60
2015,07,20,07,25,17.60
2015,07,20,07,26,17.60
2015,07,20,07,27,17.60
2015,07,20,07,28,17.70
2015,07,20,07,29,17.70
2015,07,20,07,30,17.70
2015,07,20,07,31,17.70
2015,07,20,07,32,17.70
2015,07,20,07,33,17.70
2015,07,20,07,34,17.80
2015,07,20,07,35,17.80
2015,07,20,07,36,17.80
2015,07,20,07,37,17.80
2015,07,20,07,38,17.80
2015,07,20,07,39,17.80
2015,07,20,07,40,17.80
2015,07,20,07,41,17.80
2015,07,20,07,42,17.80
2015,07,20,07,43,17.80
2015,07,20,07,44,17.80
2015,07,20,07,45,17.90
2015,07,20,07,46,17.90
2015,07,20,07,47,18.00
2015,07,20,07,48,18.00
2015,07,20,07,49,18.10
2015,07,20,07,50,18.20
2015,07,20,07,51,18.20
2015,07,20,07,52,18.20
2015,07,20,07,53,18.20
2015,07,20,07,54,18.30
2015,07,20,07,55,18.30
2015,07,20,07,56,18.40
2015,07,20,07,57,18.40
2015,07,20,07,58,18.50
2015,07,20,07,59,18.50
2015,07,20,08,00,18.50
2015,07,20,08,01,18.50
2015,07,20,08,02,18.60
2015,07,20,08,03,18.60
2015,07,20,08,04,18.60
2015,07,20,08,05,18.60
2015,07,20,08,06,18.60
2015,07,20,08,07,18.50
2015,07,20,08,08,18.50
2015,07,20,08,09,18.50
2015,07,20,08,10,18.60
2015,07,20,08,11,18.60
2015,07,20,08,12,18.60
2015,07,20,08,13,18.60
2015,07,20,08,14,18.60
2015,07,20,08,15,18.60
2015,07,20,08,16,18.60
2015,07,20,08,17,18.60
2015,07,20,08,18,18.70
2015,07,20,08,19,18.70
2015,07,20,08,20,18.70
2015,07,20,08,21,18.70
2015,07,20,08,22,18.80
2015,07,20,08,23,18.80
2015,07,20,08,24,18.80
2015,07,20,08,25,18.80
2015,07,20,08,26,18.80
2015,07,20,08,27,18.80
2015,07,20,08,28,18.80
2015,07,20,08,29,18.80
2015,07,20,08,30,18.90
2015,07,20,08,31,18.90
2015,07,20,08,32,18.90
2015,07,20,08,33,18.90
2015,07,20,08,34,19.00
2015,07,20,08,35,19.00
2015,07,20,08,36,19.10
2015,07,20,08,37,19.10
2015,07,20,08,38,19.10
2015,07,20,08,39,19.10
2015,07,20,08,40,19.10
2015,07,20,08,41,19.10
2015,07,20,08,42,19.10
2015,07,20,08,43,19.10
2015,07,20,08,44,19.10
2015,07,20,08,45,19.10
2015,07,20,08,46,19.00
2015,07,20,08,47,18.90
2015,07,20,08,48,18.90
2015,07,20,08,49,18.80
2015,07,20,08,50,18.90
2015,07,20,08,51,19.00
2015,07,20,08,52,19.10
2015,07,20,08,53,19.30
2015,07,20,08,54,19.40
2015,07,20,08,55,19.40
2015,07,20,08,56,19.40
2015,07,20,08,57,19.50
2015,07,20,08,58,19.60
2015,07,20,08,59,19.60
2015,07,20,09,00,19.60
2015,07,20,09,01,19.60
2015,07,20,09,02,19.60
2015,07,20,09,03,19.60
2015,07,20,09,04,19.50
2015,07,20,09,05,19.40
2015,07,20,09,06,19.50
2015,07,20,09,07,19.40
2015,07,20,09,08,19.30
2015,07,20,09,09,19.20
2015,07,20,09,10,19.20
2015,07,20,09,11,19.20
2015,07,20,09,12,19.20
2015,07,20,09,13,19.20
2015,07,20,09,14,19.20
2015,07,20,09,15,19.30
2015,07,20,09,16,19.20
2015,07,20,09,17,19.30
2015,07,20,09,18,19.30
2015,07,20,09,19,19.40
2015,07,20,09,20,19.30
2015,07,20,09,21,19.30
2015,07,20,09,22,19.20
2015,07,20,09,23,19.20
2015,07,20,09,24,19.20
2015,07,20,09,25,19.10
2015,07,20,09,26,19.10
2015,07,20,09,27,19.10
2015,07,20,09,28,19.10
2015,07,20,09,29,19.10
2015,07,20,09,30,19.10
2015,07,20,09,31,19.10
2015,07,20,09,32,19.10
2015,07,20,09,33,19.10
2015,07,20,09,34,19.20
2015,07,20,09,35,19.20
2015,07,20,09,36,19.30
2015,07,20,09,37,19.30
2015,07,20,09,38,19.40
2015,07,20,09,39,19.40
2015,07,20,09,40,19.30
2015,07,20,09,41,19.30
2015,07,20,09,42,19.30
2015,07,20,09,43,19.50
2015,07,20,09,44,19.50
2015,07,20,09,45,19.50
2015,07,20,09,46,19.40
2015,07,20,09,47,19.40
2015,07,20,09,48,19.40
2015,07,20,09,49,19.50
2015,07,20,09,50,19.60
2015,07,20,09,51,19.60
2015,07,20,09,52,19.70
2015,07,20,09,53,19.70
2015,07,20,09,54,19.70
2015,07,20,09,55,19.70
2015,07,20,09,56,19.70
2015,07,20,09,57,19.70
2015,07,20,09,58,19.70
2015,07,20,09,59,19.80
2015,07,20,10,00,19.80
2015,07,20,10,01,19.70
2015,07,20,10,02,19.70
2015,07,20,10,03,19.70
2015,07,20,10,04,19.70
2015,07,20,10,05,19.80
2015,07,20,10,06,19.90
2015,07,20,10,07,19.90
2015,07,20,10,08,20.00
2015,07,20,10,09,20.10
2015,07,20,10,10,20.10
2015,07,20,10,11,20.30
2015,07,20,10,12,20.20
2015,07,20,10,13,20.20
2015,07,20,10,14,20.20
2015,07,20,10,15,20.10
2015,07,20,10,16,20.00
2015,07,20,10,17,20.00
2015,07,20,10,18,20.10
2015,07,20,10,19,20.10
2015,07,20,10,20,20.10
2015,07,20,10,21,20.10
2015,07,20,10,22,20.10
2015,07,20,10,23,20.10
2015,07,20,10,24,20.20
2015,07,20,10,25,20.30
2015,07,20,10,26,20.40
2015,07,20,10,27,20.50
2015,07,20,10,28,20.50
2015,07,20,10,29,20.40
2015,07,20,10,30,20.40
2015,07,20,10,31,20.40
2015,07,20,10,32,20.40
2015,07,20,10,33,20.40
2015,07,20,10,34,20.40
2015,07,20,10,35,20.40
2015,07,20,10,36,20.40
2015,07,20,10,37,20.40
2015,07,20,10,38,20.50
2015,07,20,10,39,20.50
2015,07,20,10,40,20.50
2015,07,20,10,41,20.40
2015,07,20,10,42,20.30
2015,07,20,10,43,20.20
2015,07,20,10,44,20.30
2015,07,20,10,45,20.30
2015,07,20,10,46,20.20
2015,07,20,10,47,20.10
2015,07,20,10,48,20.30
2015,07,20,10,49,20.40
2015,07,20,10,50,20.40
2015,07,20,10,51,20.30
2015,07,20,10,52,20.30
2015,07,20,10,53,20.40
2015,07,20,10,54,20.50
2015,07,20,10,55,20.60
2015,07,20,10,56,20.70
2015,07,20,10,57,20.80
2015,07,20,10,58,20.90
2015,07,20,10,59,20.90
2015,07,20,11,00,20.90
2015,07,20,11,01,21.10
2015,07,20,11,02,20.90
2015,07,20,11,03,20.70
2015,07,20,11,04,20.70
2015,07,20,11,05,20.70
2015,07,20,11,06,20.80
2015,07,20,11,07,20.90
2015,07,20,11,08,20.80
2015,07,20,11,09,20.60
2015,07,20,11,10,20.50
2015,07,20,11,11,20.40
2015,07,20,11,12,20.50
2015,07,20,11,13,20.50
2015,07,20,11,14,20.50
2015,07,20,11,15,20.40
2015,07,20,11,16,20.40
2015,07,20,11,17,20.40
2015,07,20,11,18,20.50
2015,07,20,11,19,20.60
2015,07,20,11,20,20.50
2015,07,20,11,21,20.40
2015,07,20,11,22,20.40
2015,07,20,11,23,20.40
2015,07,20,11,24,20.40
2015,07,20,11,25,20.30
2015,07,20,11,26,20.20
2015,07,20,11,27,20.20
2015,07,20,11,28,20.20
2015,07,20,11,29,20.20
2015,07,20,11,30,20.20
2015,07,20,11,31,20.30
2015,07,20,11,32,20.30
2015,07,20,11,33,20.30
2015,07,20,11,34,20.30
2015,07,20,11,35,20.30
2015,07,20,11,36,20.20
2015,07,20,11,37,20.20
2015,07,20,11,38,20.20
2015,07,20,11,39,20.20
2015,07,20,11,40,20.20
2015,07,20,11,41,20.30
2015,07,20,11,42,20.30
2015,07,20,11,43,20.30
2015,07,20,11,44,20.20
2015,07,20,11,45,20.30
2015,07,20,11,46,20.40
2015,07,20,11,47,20.40
2015,07,20,11,48,20.50
2015,07,20,11,49,20.50
2015,07,20,11,50,20.50
2015,07,20,11,51,20.50
2015,07,20,11,52,20.50
2015,07,20,11,53,20.50
2015,07,20,11,54,20.60
2015,07,20,11,55,20.60
2015,07,20,11,56,20.60
2015,07,20,11,57,20.70
2015,07,20,11,58,20.70
2015,07,20,11,59,20.60
2015,07,20,12,00,20.60
2015,07,20,12,01,20.70
2015,07,20,12,02,20.80
2015,07,20,12,03,20.80
2015,07,20,12,04,20.90
2015,07,20,12,05,21.00
2015,07,20,12,06,21.10
2015,07,20,12,07,21.00
2015,07,20,12,08,21.00
2015,07,20,12,09,21.10
2015,07,20,12,10,21.10
2015,07,20,12,11,21.00
2015,07,20,12,12,21.00
2015,07,20,12,13,21.00
2015,07,20,12,14,21.10
2015,07,20,12,15,21.10
2015,07,20,12,16,21.10
2015,07,20,12,17,21.10
2015,07,20,12,18,20.90
2015,07,20,12,19,20.80
2015,07,20,12,20,20.80
2015,07,20,12,21,20.90
2015,07,20,12,22,20.80
2015,07,20,12,23,20.80
2015,07,20,12,24,20.90
2015,07,20,12,25,21.00
2015,07,20,12,26,21.00
2015,07,20,12,27,20.90
2015,07,20,12,28,20.90
2015,07,20,12,29,20.70
2015,07,20,12,30,20.60
2015,07,20,12,31,20.50
2015,07,20,12,32,20.50
2015,07,20,12,33,20.50
2015,07,20,12,34,20.40
2015,07,20,12,35,20.40
2015,07,20,12,36,20.50
2015,07,20,12,37,20.60
2015,07,20,12,38,20.70
2015,07,20,12,39,20.70
2015,07,20,12,40,20.70
2015,07,20,12,41,20.70
2015,07,20,12,42,20.60
2015,07,20,12,43,20.50
2015,07,20,12,44,20.50
2015,07,20,12,45,20.40
2015,07,20,12,46,20.50
2015,07,20,12,47,20.60
2015,07,20,12,48,20.60
2015,07,20,12,49,20.60
2015,07,20,12,50,20.60
2015,07,20,12,51,20.60
2015,07,20,12,52,20.60
2015,07,20,12,53,20.60
2015,07,20,12,54,20.50
2015,07,20,12,55,20.50
2015,07,20,12,56,20.50
2015,07,20,12,57,20.50
2015,07,20,12,58,20.40
2015,07,20,12,59,20.50
2015,07,20,13,00,20.50
2015,07,20,13,01,20.40
2015,07,20,13,02,20.30
2015,07,20,13,03,20.40
2015,07,20,13,04,20.50
2015,07,20,13,05,20.50
2015,07,20,13,06,20.60
2015,07,20,13,07,20.60
2015,07,20,13,08,20.50
2015,07,20,13,09,20.40
2015,07,20,13,10,20.40
2015,07,20,13,11,20.40
2015,07,20,13,12,20.50
2015,07,20,13,13,20.70
2015,07,20,13,14,20.80
2015,07,20,13,15,20.80
2015,07,20,13,16,20.70
2015,07,20,13,17,20.60
2015,07,20,13,18,20.50
2015,07,20,13,19,20.50
2015,07,20,13,20,20.40
2015,07,20,13,21,20.50
2015,07,20,13,22,20.40
2015,07,20,13,23,20.50
2015,07,20,13,24,20.60
2015,07,20,13,25,20.60
2015,07,20,13,26,20.60
2015,07,20,13,27,20.50
2015,07,20,13,28,20.50
2015,07,20,13,29,20.50
2015,07,20,13,30,20.40
2015,07,20,13,31,20.50
2015,07,20,13,32,20.50
2015,07,20,13,33,20.60
2015,07,20,13,34,20.80
2015,07,20,13,35,20.80
2015,07,20,13,36,20.90
2015,07,20,13,37,20.80
2015,07,20,13,38,20.90
2015,07,20,13,39,20.80
2015,07,20,13,40,20.80
2015,07,20,13,41,20.80
2015,07,20,13,42,20.80
2015,07,20,13,43,20.80
2015,07,20,13,44,20.70
2015,07,20,13,45,20.70
2015,07,20,13,46,20.50
2015,07,20,13,47,20.50
2015,07,20,13,48,20.50
2015,07,20,13,49,20.40
2015,07,20,13,50,20.40
2015,07,20,13,51,20.50
2015,07,20,13,52,20.60
2015,07,20,13,53,20.60
2015,07,20,13,54,20.70
2015,07,20,13,55,20.70
2015,07,20,13,56,20.70
2015,07,20,13,57,20.80
2015,07,20,13,58,21.00
2015,07,20,13,59,21.20
2015,07,20,14,00,21.30
2015,07,20,14,01,21.30
2015,07,20,14,02,21.30
2015,07,20,14,03,21.30
2015,07,20,14,04,21.30
2015,07,20,14,05,21.50
2015,07,20,14,06,21.50
2015,07,20,14,07,21.50
2015,07,20,14,08,21.40
2015,07,20,14,09,21.50
2015,07,20,14,10,21.50
2015,07,20,14,11,21.50
2015,07,20,14,12,21.60
2015,07,20,14,13,21.60
2015,07,20,14,14,21.80
2015,07,20,14,15,21.90
2015,07,20,14,16,22.00
2015,07,20,14,17,22.00
2015,07,20,14,18,21.80
2015,07,20,14,19,21.70
2015,07,20,14,20,21.60
2015,07,20,14,21,21.60
2015,07,20,14,22,21.60
2015,07,20,14,23,21.60
2015,07,20,14,24,21.50
2015,07,20,14,25,21.60
2015,07,20,14,26,21.80
2015,07,20,14,27,22.00
2015,07,20,14,28,22.00
2015,07,20,14,29,21.90
2015,07,20,14,30,21.80
2015,07,20,14,31,21.80
2015,07,20,14,32,21.90
2015,07,20,14,33,22.00
2015,07,20,14,34,22.10
2015,07,20,14,35,22.10
2015,07,20,14,36,21.90
2015,07,20,14,37,21.90
2015,07,20,14,38,22.00
2015,07,20,14,39,21.90
2015,07,20,14,40,21.90
2015,07,20,14,41,21.90
2015,07,20,14,42,21.90
2015,07,20,14,43,21.80
2015,07,20,14,44,21.80
2015,07,20,14,45,21.80
2015,07,20,14,46,21.80
2015,07,20,14,47,21.90
2015,07,20,14,48,22.00
2015,07,20,14,49,22.00
2015,07,20,14,50,22.00
2015,07,20,14,51,22.00
2015,07,20,14,52,22.10
2015,07,20,14,53,22.00
2015,07,20,14,54,21.90
2015,07,20,14,55,22.00
2015,07,20,14,56,22.10
2015,07,20,14,57,22.10
2015,07,20,14,58,22.20
2015,07,20,14,59,22.10
2015,07,20,15,00,22.10
2015,07,20,15,01,22.00
2015,07,20,15,02,21.80
2015,07,20,15,03,21.70
2015,07,20,15,04,21.80
2015,07,20,15,05,21.80
2015,07,20,15,06,21.70
2015,07,20,15,07,21.80
2015,07,20,15,08,21.90
2015,07,20,15,09,22.00
2015,07,20,15,10,22.10
2015,07,20,15,11,22.10
2015,07,20,15,12,22.10
2015,07,20,15,13,22.00
2015,07,20,15,14,21.90
2015,07,20,15,15,21.90
2015,07,20,15,16,22.00
2015,07,20,15,17,22.00
2015,07,20,15,18,21.90
2015,07,20,15,19,21.90
2015,07,20,15,20,22.00
2015,07,20,15,21,22.10
2015,07,20,15,22,22.30
2015,07,20,15,23,22.20
2015,07,20,15,24,22.10
2015,07,20,15,25,22.10
2015,07,20,15,26,22.10
2015,07,20,15,27,22.10
2015,07,20,15,28,22.20
2015,07,20,15,29,22.10
2015,07,20,15,30,22.10
2015,07,20,15,31,22.10
2015,07,20,15,32,21.90
2015,07,20,15,33,21.90
2015,07,20,15,34,21.90
2015,07,20,15,35,21.90
2015,07,20,15,36,21.80
2015,07,20,15,37,21.60
2015,07,20,15,38,21.40
2015,07,20,15,39,21.30
2015,07,20,15,40,21.30
2015,07,20,15,41,21.20
2015,07,20,15,42,21.20
2015,07,20,15,43,21.30
2015,07,20,15,44,21.40
2015,07,20,15,45,21.40
2015,07,20,15,46,21.40
2015,07,20,15,47,21.40
2015,07,20,15,48,21.30
2015,07,20,15,49,21.40
2015,07,20,15,50,21.30
2015,07,20,15,51,21.30
2015,07,20,15,52,21.30
2015,07,20,15,53,21.50
2015,07,20,15,54,21.60
2015,07,20,15,55,21.60
2015,07,20,15,56,21.50
2015,07,20,15,57,21.40
2015,07,20,15,58,21.50
2015,07,20,15,59,21.60
2015,07,20,16,00,21.60
2015,07,20,16,01,21.70
2015,07,20,16,02,21.80
2015,07,20,16,03,21.70
2015,07,20,16,04,21.50
2015,07,20,16,05,21.50
2015,07,20,16,06,21.40
2015,07,20,16,07,21.30
2015,07,20,16,08,21.30
2015,07,20,16,09,21.40
2015,07,20,16,10,21.40
2015,07,20,16,11,21.30
2015,07,20,16,12,21.30
2015,07,20,16,13,21.40
2015,07,20,16,14,21.40
2015,07,20,16,15,21.40
2015,07,20,16,16,21.40
2015,07,20,16,17,21.40
2015,07,20,16,18,21.30
2015,07,20,16,19,21.30
2015,07,20,16,20,21.30
2015,07,20,16,21,21.20
2015,07,20,16,22,21.10
2015,07,20,16,23,21.20
2015,07,20,16,24,21.20
2015,07,20,16,25,21.30
2015,07,20,16,26,21.20
2015,07,20,16,27,21.10
2015,07,20,16,28,21.00
2015,07,20,16,29,21.10
2015,07,20,16,30,21.20
2015,07,20,16,31,21.30
2015,07,20,16,32,21.30
2015,07,20,16,33,21.50
2015,07,20,16,34,21.50
2015,07,20,16,35,21.40
2015,07,20,16,36,21.50
2015,07,20,16,37,21.50
2015,07,20,16,38,21.40
2015,07,20,16,39,21.30
2015,07,20,16,40,21.20
2015,07,20,16,41,21.30
2015,07,20,16,42,21.30
2015,07,20,16,43,21.40
2015,07,20,16,44,21.40
2015,07,20,16,45,21.30
2015,07,20,16,46,21.30
2015,07,20,16,47,21.20
2015,07,20,16,48,21.20
2015,07,20,16,49,21.20
2015,07,20,16,50,21.20
2015,07,20,16,51,21.30
2015,07,20,16,52,21.30
2015,07,20,16,53,21.20
2015,07,20,16,54,21.20
2015,07,20,16,55,21.20
2015,07,20,16,56,21.10
2015,07,20,16,57,21.20
2015,07,20,16,58,21.20
2015,07,20,16,59,21.20
2015,07,20,17,00,21.20
2015,07,20,17,01,21.20
2015,07,20,17,02,21.20
2015,07,20,17,03,21.20
2015,07,20,17,04,21.20
2015,07,20,17,05,21.20
2015,07,20,17,06,21.20
2015,07,20,17,07,21.20
2015,07,20,17,08,21.30
2015,07,20,17,09,21.20
2015,07,20,17,10,21.20
2015,07,20,17,11,21.10
2015,07,20,17,12,21.20
2015,07,20,17,13,21.20
2015,07,20,17,14,21.20
2015,07,20,17,15,21.20
2015,07,20,17,16,21.20
2015,07,20,17,17,21.00
2015,07,20,17,18,20.90
2015,07,20,17,19,21.00